Time,TemperatureF,DewpointF,PressureIn,WindDirection,WindDirectionDegrees,WindSpeedMPH,WindSpeedGustMPH,Humidity,HourlyPrecipIn,Conditions,Clouds,dailyrainin,SoftwareType,DateUTC
2013-07-20 00:00:00,70.0,68.8,29.95,SSW,200,0.0,0.0,96,0.00,,,0.00,Wunderground v.1.15,2013-07-20 04:00:00,
2013-07-20 00:05:00,70.0,68.8,29.95,SSW,200,0.0,0.0,96,0.00,,,0.00,Wunderground v.1.15,2013-07-20 04:05:00,
2013-07-20 00:10:00,70.0,68.8,29.95,SSW,200,0.0,0.0,96,0.00,,,0.00,Wunderground v.1.15,2013-07-20 04:10:00,
2013-07-20 00:15:00,70.0,68.8,29.95,SSW,200,0.0,0.0,96,0.00,,,0.00,Wunderground v.1.15,2013-07-20 04:15:00,
2013-07-20 00:20:00,69.9,68.7,29.95,SSW,200,0.0,0.0,96,0.00,,,0.00,Wunderground v.1.15,2013-07-20 04:20:00,
2013-07-20 00:25:00,69.9,68.7,29.96,SSW,200,0.0,0.0,96,0.00,,,0.00,Wunderground v.1.15,2013-07-20 04:25:00,
2013-07-20 00:35:00,69.7,68.5,29.95,SSW,200,0.0,0.0,96,0.00,,,0.00,Wunderground v.1.15,2013-07-20 04:35:00,
2013-07-20 00:40:00,69.6,68.4,29.95,SSW,200,0.0,0.0,96,0.00,,,0.00,Wunderground v.1.15,2013-07-20 04:40:00,
2013-07-20 00:45:00,69.5,68.3,29.95,SSW,200,0.0,0.0,96,0.00,,,0.00,Wunderground v.1.15,2013-07-20 04:45:00,
2013-07-20 00:55:00,69.3,68.1,29.95,SSW,200,0.0,0.0,96,0.00,,,0.00,Wunderground v.1.15,2013-07-20 04:55:00,
2013-07-20 01:00:00,69.2,68.0,29.95,SSW,200,0.0,0.0,96,0.00,,,0.00,Wunderground v.1.15,2013-07-20 05:00:00,
2013-07-20 01:05:00,69.2,68.0,29.95,SSW,200,0.0,0.0,96,0.00,,,0.00,Wunderground v.1.15,2013-07-20 05:05:00,
2013-07-20 01:10:00,69.1,67.9,29.95,SSW,200,0.0,0.0,96,0.00,,,0.00,Wunderground v.1.15,2013-07-20 05:10:00,
2013-07-20 01:15:00,69.1,67.9,29.94,SSW,200,0.0,0.0,96,0.00,,,0.00,Wunderground v.1.15,2013-07-20 05:15:00,
2013-07-20 01:20:00,69.0,67.8,29.94,SSW,200,0.0,0.0,96,0.00,,,0.00,Wunderground v.1.15,2013-07-20 05:20:00,
2013-07-20 01:25:00,68.9,67.7,29.95,SSW,200,0.0,0.0,96,0.00,,,0.00,Wunderground v.1.15,2013-07-20 05:25:00,
2013-07-20 01:30:00,68.8,67.6,29.95,SSW,200,0.0,0.0,96,0.00,,,0.00,Wunderground v.1.15,2013-07-20 05:30:00,
2013-07-20 01:35:00,68.8,67.9,29.95,SSW,200,0.0,0.0,97,0.00,,,0.00,Wunderground v.1.15,2013-07-20 05:35:00,
2013-07-20 01:40:00,68.7,67.8,29.95,SSW,200,0.0,0.0,97,0.00,,,0.00,Wunderground v.1.15,2013-07-20 05:40:00,
2013-07-20 01:45:00,68.7,67.8,29.95,SSW,200,0.0,0.0,97,0.00,,,0.00,Wunderground v.1.15,2013-07-20 05:45:00,
2013-07-20 01:50:00,68.7,67.8,29.94,SSW,200,0.0,0.0,97,0.00,,,0.00,Wunderground v.1.15,2013-07-20 05:50:00,
2013-07-20 01:55:00,68.7,67.8,29.94,SSW,200,0.0,0.0,97,0.00,,,0.00,Wunderground v.1.15,2013-07-20 05:55:00,
2013-07-20 02:00:00,68.7,67.8,29.94,SSW,200,0.0,0.0,97,0.00,,,0.00,Wunderground v.1.15,2013-07-20 06:00:00,
2013-07-20 02:05:00,68.7,67.8,29.94,SSW,200,0.0,0.0,97,0.00,,,0.00,Wunderground v.1.15,2013-07-20 06:05:00,
2013-07-20 02:10:00,68.6,67.7,29.94,SSW,200,0.0,0.0,97,0.00,,,0.00,Wunderground v.1.15,2013-07-20 06:10:00,
2013-07-20 02:15:00,68.5,67.6,29.94,SSW,200,0.0,0.0,97,0.00,,,0.00,Wunderground v.1.15,2013-07-20 06:15:00,
2013-07-20 02:20:00,68.4,67.5,29.93,SSW,200,0.0,0.0,97,0.00,,,0.00,Wunderground v.1.15,2013-07-20 06:20:00,
2013-07-20 02:25:00,68.4,67.5,29.93,SSW,200,0.0,0.0,97,0.00,,,0.00,Wunderground v.1.15,2013-07-20 06:25:00,
2013-07-20 02:30:00,68.3,67.4,29.93,SSW,200,0.0,0.0,97,0.00,,,0.00,Wunderground v.1.15,2013-07-20 06:30:00,
2013-07-20 02:35:00,68.2,67.3,29.93,SSW,200,0.0,0.0,97,0.00,,,0.00,Wunderground v.1.15,2013-07-20 06:35:00,
2013-07-20 02:40:00,68.2,67.3,29.93,SSW,200,0.0,0.0,97,0.00,,,0.00,Wunderground v.1.15,2013-07-20 06:40:00,
2013-07-20 02:45:00,68.2,67.3,29.93,SSW,200,0.0,0.0,97,0.00,,,0.00,Wunderground v.1.15,2013-07-20 06:45:00,
2013-07-20 02:50:00,68.1,67.2,29.93,SSW,200,0.0,0.0,97,0.00,,,0.00,Wunderground v.1.15,2013-07-20 06:50:00,
2013-07-20 02:55:00,68.0,67.1,29.93,SSW,200,0.0,0.0,97,0.00,,,0.00,Wunderground v.1.15,2013-07-20 06:55:00,
2013-07-20 03:00:00,67.9,67.0,29.93,SSW,200,0.0,0.0,97,0.00,,,0.00,Wunderground v.1.15,2013-07-20 07:00:00,
2013-07-20 03:05:00,67.9,67.0,29.93,SSW,200,0.0,0.0,97,0.00,,,0.00,Wunderground v.1.15,2013-07-20 07:05:00,
2013-07-20 03:15:00,67.9,67.0,29.93,SSW,200,0.0,0.0,97,0.00,,,0.00,Wunderground v.1.15,2013-07-20 07:15:00,
2013-07-20 03:20:00,67.9,67.0,29.92,SSW,200,0.0,0.0,97,0.00,,,0.00,Wunderground v.1.15,2013-07-20 07:20:00,
2013-07-20 03:25:00,67.8,66.9,29.92,SSW,200,0.0,0.0,97,0.00,,,0.00,Wunderground v.1.15,2013-07-20 07:25:00,
2013-07-20 03:30:00,67.8,66.9,29.92,SSW,200,0.0,0.0,97,0.00,,,0.00,Wunderground v.1.15,2013-07-20 07:30:00,
2013-07-20 03:35:00,67.8,67.2,29.92,SSW,200,0.0,0.0,98,0.00,,,0.00,Wunderground v.1.15,2013-07-20 07:35:00,
2013-07-20 03:40:00,67.8,66.9,29.92,SSW,200,0.0,0.0,97,0.00,,,0.00,Wunderground v.1.15,2013-07-20 07:40:00,
2013-07-20 03:45:00,67.6,66.7,29.92,SSW,200,0.0,0.0,97,0.00,,,0.00,Wunderground v.1.15,2013-07-20 07:45:00,
2013-07-20 03:50:00,67.6,66.7,29.92,SSW,200,0.0,0.0,97,0.00,,,0.00,Wunderground v.1.15,2013-07-20 07:50:00,
2013-07-20 03:55:00,67.5,66.6,29.92,SSW,200,0.0,0.0,97,0.00,,,0.00,Wunderground v.1.15,2013-07-20 07:55:00,
2013-07-20 04:00:00,67.5,66.6,29.92,SSW,200,0.0,0.0,97,0.00,,,0.00,Wunderground v.1.15,2013-07-20 08:00:00,
2013-07-20 04:05:00,67.6,67.0,29.92,SSW,200,0.0,0.0,98,0.00,,,0.00,Wunderground v.1.15,2013-07-20 08:05:00,
2013-07-20 04:15:00,67.5,66.9,29.92,SSW,200,0.0,0.0,98,0.00,,,0.00,Wunderground v.1.15,2013-07-20 08:15:00,
2013-07-20 04:20:00,67.5,66.9,29.92,SSW,200,0.0,0.0,98,0.00,,,0.00,Wunderground v.1.15,2013-07-20 08:20:00,
2013-07-20 04:25:00,67.6,67.0,29.92,SSW,200,0.0,0.0,98,0.00,,,0.00,Wunderground v.1.15,2013-07-20 08:25:00,
2013-07-20 04:30:00,67.6,67.0,29.92,SSW,200,0.0,0.0,98,0.00,,,0.00,Wunderground v.1.15,2013-07-20 08:30:00,
2013-07-20 04:35:00,67.6,67.0,29.92,SSW,200,0.0,0.0,98,0.00,,,0.00,Wunderground v.1.15,2013-07-20 08:35:00,
2013-07-20 04:40:00,67.6,67.0,29.92,SSW,200,0.0,0.0,98,0.00,,,0.00,Wunderground v.1.15,2013-07-20 08:40:00,
2013-07-20 04:45:00,67.7,67.1,29.92,SSW,200,0.0,0.0,98,0.00,,,0.00,Wunderground v.1.15,2013-07-20 08:45:00,
2013-07-20 04:50:00,67.6,67.0,29.91,SSW,200,0.0,0.0,98,0.00,,,0.00,Wunderground v.1.15,2013-07-20 08:50:00,
2013-07-20 04:55:00,67.5,66.9,29.91,SSW,200,0.0,0.0,98,0.00,,,0.00,Wunderground v.1.15,2013-07-20 08:55:00,
2013-07-20 05:00:00,67.3,66.7,29.92,SSW,200,0.0,0.0,98,0.00,,,0.00,Wunderground v.1.15,2013-07-20 09:00:00,
2013-07-20 05:05:00,67.2,66.6,29.92,SSW,200,0.0,0.0,98,0.00,,,0.00,Wunderground v.1.15,2013-07-20 09:05:00,
2013-07-20 05:15:00,67.0,66.1,29.92,SSW,200,0.0,0.0,97,0.00,,,0.00,Wunderground v.1.15,2013-07-20 09:15:00,
2013-07-20 05:20:00,66.8,65.9,29.92,SSW,200,0.0,0.0,97,0.00,,,0.00,Wunderground v.1.15,2013-07-20 09:20:00,
2013-07-20 05:25:00,66.6,65.7,29.92,SSW,200,0.0,0.0,97,0.00,,,0.00,Wunderground v.1.15,2013-07-20 09:25:00,
2013-07-20 05:30:00,66.5,65.6,29.92,SSW,200,0.0,0.0,97,0.00,,,0.00,Wunderground v.1.15,2013-07-20 09:30:00,
2013-07-20 05:35:00,66.5,65.6,29.92,SSW,200,0.0,0.0,97,0.00,,,0.00,Wunderground v.1.15,2013-07-20 09:35:00,
2013-07-20 05:40:00,66.5,65.9,29.92,SSW,200,0.0,0.0,98,0.00,,,0.00,Wunderground v.1.15,2013-07-20 09:40:00,
2013-07-20 05:45:00,66.4,65.8,29.92,SSW,200,0.0,0.0,98,0.00,,,0.00,Wunderground v.1.15,2013-07-20 09:45:00,
2013-07-20 05:50:00,66.4,65.8,29.93,SSW,200,0.0,0.0,98,0.00,,,0.00,Wunderground v.1.15,2013-07-20 09:50:00,
2013-07-20 05:55:00,66.5,65.9,29.92,SSW,200,0.0,0.0,98,0.00,,,0.00,Wunderground v.1.15,2013-07-20 09:55:00,
2013-07-20 06:00:00,66.7,66.1,29.93,SSW,200,0.0,0.0,98,0.00,,,0.00,Wunderground v.1.15,2013-07-20 10:00:00,
2013-07-20 06:05:00,66.7,66.1,29.93,SSW,200,0.0,0.0,98,0.00,,,0.00,Wunderground v.1.15,2013-07-20 10:05:00,
2013-07-20 06:10:00,66.6,66.0,29.93,SSW,200,0.0,0.0,98,0.00,,,0.00,Wunderground v.1.15,2013-07-20 10:10:00,
2013-07-20 06:15:00,66.5,65.9,29.93,SSW,200,0.0,0.0,98,0.00,,,0.00,Wunderground v.1.15,2013-07-20 10:15:00,
2013-07-20 06:20:00,66.5,65.9,29.93,SSW,200,0.0,0.0,98,0.00,,,0.00,Wunderground v.1.15,2013-07-20 10:20:00,
2013-07-20 06:25:00,66.6,66.0,29.94,SSW,200,0.0,0.0,98,0.00,,,0.00,Wunderground v.1.15,2013-07-20 10:25:00,
2013-07-20 06:30:00,66.6,66.0,29.94,SSW,200,0.0,0.0,98,0.00,,,0.00,Wunderground v.1.15,2013-07-20 10:30:00,
2013-07-20 06:35:00,66.6,66.0,29.94,SSW,200,0.0,0.0,98,0.00,,,0.00,Wunderground v.1.15,2013-07-20 10:35:00,
2013-07-20 06:40:00,66.4,65.8,29.94,SSW,200,0.0,0.0,98,0.00,,,0.00,Wunderground v.1.15,2013-07-20 10:40:00,
2013-07-20 06:45:00,66.3,65.7,29.94,SSW,200,0.0,0.0,98,0.00,,,0.00,Wunderground v.1.15,2013-07-20 10:45:00,
2013-07-20 06:50:00,66.2,65.6,29.94,SSW,200,0.0,0.0,98,0.00,,,0.00,Wunderground v.1.15,2013-07-20 10:50:00,
2013-07-20 06:55:00,66.1,65.5,29.94,SSW,200,0.0,0.0,98,0.00,,,0.00,Wunderground v.1.15,2013-07-20 10:55:00,
2013-07-20 07:00:00,66.1,65.5,29.94,SSW,200,0.0,0.0,98,0.00,,,0.00,Wunderground v.1.15,2013-07-20 11:00:00,
2013-07-20 07:05:00,66.0,65.4,29.94,SSW,200,0.0,0.0,98,0.00,,,0.00,Wunderground v.1.15,2013-07-20 11:05:00,
2013-07-20 07:10:00,66.0,65.4,29.94,SSW,200,0.0,0.0,98,0.00,,,0.00,Wunderground v.1.15,2013-07-20 11:10:00,
2013-07-20 07:15:00,66.1,65.5,29.94,SSW,200,0.0,0.0,98,0.00,,,0.00,Wunderground v.1.15,2013-07-20 11:15:00,
2013-07-20 07:20:00,66.2,65.6,29.94,SSW,200,0.0,0.0,98,0.00,,,0.00,Wunderground v.1.15,2013-07-20 11:20:00,
2013-07-20 07:25:00,66.3,65.7,29.94,SSW,200,0.0,0.0,98,0.00,,,0.00,Wunderground v.1.15,2013-07-20 11:25:00,
2013-07-20 07:30:00,66.4,65.8,29.94,SSW,200,0.0,0.0,98,0.00,,,0.00,Wunderground v.1.15,2013-07-20 11:30:00,
2013-07-20 07:35:00,66.5,65.9,29.94,SSW,200,0.0,0.0,98,0.00,,,0.00,Wunderground v.1.15,2013-07-20 11:35:00,
2013-07-20 07:40:00,66.7,66.1,29.94,SSW,200,0.0,0.0,98,0.00,,,0.00,Wunderground v.1.15,2013-07-20 11:40:00,
2013-07-20 07:45:00,66.8,66.5,29.95,SSW,200,0.0,0.0,99,0.00,,,0.00,Wunderground v.1.15,2013-07-20 11:45:00,
2013-07-20 07:50:00,67.0,66.4,29.95,SSW,200,0.0,0.0,98,0.00,,,0.00,Wunderground v.1.15,2013-07-20 11:50:00,
2013-07-20 07:55:00,67.0,66.4,29.95,SSW,200,0.0,0.0,98,0.00,,,0.00,Wunderground v.1.15,2013-07-20 11:55:00,
2013-07-20 08:00:00,66.9,66.3,29.94,SSW,200,0.0,0.0,98,0.00,,,0.00,Wunderground v.1.15,2013-07-20 12:00:00,
2013-07-20 08:05:00,67.0,66.4,29.94,SSW,200,0.0,0.0,98,0.00,,,0.00,Wunderground v.1.15,2013-07-20 12:05:00,
2013-07-20 08:10:00,67.1,66.5,29.94,SSW,200,0.0,0.0,98,0.00,,,0.00,Wunderground v.1.15,2013-07-20 12:10:00,
2013-07-20 08:15:00,67.4,67.1,29.94,SSW,200,0.0,0.0,99,0.00,,,0.00,Wunderground v.1.15,2013-07-20 12:15:00,
2013-07-20 08:20:00,67.7,67.4,29.94,SSW,200,0.0,0.0,99,0.00,,,0.00,Wunderground v.1.15,2013-07-20 12:20:00,
2013-07-20 08:25:00,68.0,67.7,29.94,SSW,200,0.0,0.0,99,0.00,,,0.00,Wunderground v.1.15,2013-07-20 12:25:00,
2013-07-20 08:30:00,68.3,68.0,29.94,SSW,200,0.0,0.0,99,0.00,,,0.00,Wunderground v.1.15,2013-07-20 12:30:00,
2013-07-20 08:35:00,68.8,68.5,29.94,SSW,200,0.0,0.0,99,0.00,,,0.00,Wunderground v.1.15,2013-07-20 12:35:00,
2013-07-20 08:40:00,69.3,69.0,29.94,SSW,200,0.0,0.0,99,0.00,,,0.00,Wunderground v.1.15,2013-07-20 12:40:00,
2013-07-20 08:45:00,69.7,69.4,29.94,SSW,200,0.0,0.0,99,0.00,,,0.00,Wunderground v.1.15,2013-07-20 12:45:00,
2013-07-20 08:50:00,70.0,69.7,29.95,SSW,200,0.0,0.0,99,0.00,,,0.00,Wunderground v.1.15,2013-07-20 12:50:00,
2013-07-20 08:55:00,70.4,70.1,29.95,SSW,200,0.0,0.0,99,0.00,,,0.00,Wunderground v.1.15,2013-07-20 12:55:00,
2013-07-20 09:00:00,70.8,70.5,29.94,SSW,200,0.0,0.0,99,0.00,,,0.00,Wunderground v.1.15,2013-07-20 13:00:00,
2013-07-20 09:05:00,71.1,70.8,29.95,SSW,200,0.0,0.0,99,0.00,,,0.00,Wunderground v.1.15,2013-07-20 13:05:00,
2013-07-20 09:10:00,71.3,71.0,29.95,SSW,200,0.0,2.0,99,0.00,,,0.00,Wunderground v.1.15,2013-07-20 13:10:00,
2013-07-20 09:15:00,71.2,70.6,29.95,SSW,200,0.0,2.0,98,0.00,,,0.00,Wunderground v.1.15,2013-07-20 13:15:00,
2013-07-20 09:20:00,71.7,71.1,29.95,SSW,200,0.0,0.0,98,0.00,,,0.00,Wunderground v.1.15,2013-07-20 13:20:00,
2013-07-20 09:25:00,72.1,71.2,29.94,SSW,200,0.0,0.0,97,0.00,,,0.00,Wunderground v.1.15,2013-07-20 13:25:00,
2013-07-20 09:30:00,72.8,71.6,29.95,SSW,200,0.0,0.0,96,0.00,,,0.00,Wunderground v.1.15,2013-07-20 13:30:00,
2013-07-20 09:35:00,73.3,72.1,29.94,SSW,200,0.0,0.0,96,0.00,,,0.00,Wunderground v.1.15,2013-07-20 13:35:00,
2013-07-20 09:40:00,73.8,72.3,29.94,SSW,200,0.0,0.0,95,0.00,,,0.00,Wunderground v.1.15,2013-07-20 13:40:00,
2013-07-20 09:45:00,74.4,72.6,29.94,SSW,200,0.0,1.0,94,0.00,,,0.00,Wunderground v.1.15,2013-07-20 13:45:00,
2013-07-20 09:50:00,74.7,71.9,29.94,SSW,200,0.0,0.0,91,0.00,,,0.00,Wunderground v.1.15,2013-07-20 13:50:00,
2013-07-20 09:55:00,75.0,72.5,29.94,SSW,200,0.0,0.0,92,0.00,,,0.00,Wunderground v.1.15,2013-07-20 13:55:00,
2013-07-20 10:00:00,75.3,73.1,29.94,SSW,200,0.0,0.0,93,0.00,,,0.00,Wunderground v.1.15,2013-07-20 14:00:00,
2013-07-20 10:05:00,75.6,73.1,29.94,SSW,200,0.0,0.0,92,0.00,,,0.00,Wunderground v.1.15,2013-07-20 14:05:00,
2013-07-20 10:10:00,75.7,72.2,29.94,SSW,200,0.0,0.0,89,0.00,,,0.00,Wunderground v.1.15,2013-07-20 14:10:00,
2013-07-20 10:15:00,76.3,73.8,29.94,SSW,200,0.0,0.0,92,0.00,,,0.00,Wunderground v.1.15,2013-07-20 14:15:00,
2013-07-20 10:20:00,76.8,73.3,29.94,SSW,200,0.0,0.0,89,0.00,,,0.00,Wunderground v.1.15,2013-07-20 14:20:00,
2013-07-20 10:25:00,77.4,73.6,29.94,SSW,200,0.0,0.0,88,0.00,,,0.00,Wunderground v.1.15,2013-07-20 14:25:00,
2013-07-20 10:30:00,78.0,72.8,29.94,SSW,200,0.0,0.0,84,0.00,,,0.00,Wunderground v.1.15,2013-07-20 14:30:00,
2013-07-20 10:35:00,78.7,74.5,29.94,SSW,200,0.0,0.0,87,0.00,,,0.00,Wunderground v.1.15,2013-07-20 14:35:00,
2013-07-20 10:40:00,79.0,73.0,29.94,SSW,200,0.0,0.0,82,0.00,,,0.00,Wunderground v.1.15,2013-07-20 14:40:00,
2013-07-20 10:45:00,79.4,73.1,29.94,SSW,200,0.0,0.0,81,0.00,,,0.00,Wunderground v.1.15,2013-07-20 14:45:00,
2013-07-20 10:50:00,79.7,73.0,29.93,SSW,200,0.0,0.0,80,0.00,,,0.00,Wunderground v.1.15,2013-07-20 14:50:00,
2013-07-20 10:55:00,80.1,73.0,29.93,SSW,200,0.0,0.0,79,0.00,,,0.00,Wunderground v.1.15,2013-07-20 14:55:00,
2013-07-20 11:00:00,80.5,73.4,29.93,SSW,200,0.0,1.0,79,0.00,,,0.00,Wunderground v.1.15,2013-07-20 15:00:00,
2013-07-20 11:05:00,80.9,73.0,29.93,SSW,200,0.0,1.0,77,0.00,,,0.00,Wunderground v.1.15,2013-07-20 15:05:00,
2013-07-20 11:15:00,81.2,74.8,29.93,SSW,200,0.0,0.0,81,0.00,,,0.00,Wunderground v.1.15,2013-07-20 15:15:00,
2013-07-20 11:20:00,81.2,73.7,29.93,SSW,200,0.0,0.0,78,0.00,,,0.00,Wunderground v.1.15,2013-07-20 15:20:00,
2013-07-20 11:25:00,81.2,74.4,29.93,SSW,200,0.0,0.0,80,0.00,,,0.00,Wunderground v.1.15,2013-07-20 15:25:00,
2013-07-20 11:30:00,81.0,73.9,29.93,SSW,200,0.0,0.0,79,0.00,,,0.00,Wunderground v.1.15,2013-07-20 15:30:00,
2013-07-20 11:35:00,80.8,74.4,29.94,SSW,200,0.0,0.0,81,0.00,,,0.00,Wunderground v.1.15,2013-07-20 15:35:00,
2013-07-20 11:40:00,80.7,74.7,29.93,SSW,200,0.0,0.0,82,0.00,,,0.00,Wunderground v.1.15,2013-07-20 15:40:00,
2013-07-20 11:45:00,80.7,74.7,29.93,SSW,200,0.0,0.0,82,0.00,,,0.00,Wunderground v.1.15,2013-07-20 15:45:00,
2013-07-20 11:50:00,80.8,75.9,29.93,SSW,200,0.0,0.0,85,0.00,,,0.00,Wunderground v.1.15,2013-07-20 15:50:00,
2013-07-20 12:00:00,81.3,75.3,29.92,SSW,200,0.0,0.0,82,0.00,,,0.00,Wunderground v.1.15,2013-07-20 16:00:00,
2013-07-20 12:05:00,81.8,75.0,29.92,SSW,200,0.0,0.0,80,0.00,,,0.00,Wunderground v.1.15,2013-07-20 16:05:00,
2013-07-20 12:10:00,82.2,74.7,29.92,SSW,200,0.0,0.0,78,0.00,,,0.00,Wunderground v.1.15,2013-07-20 16:10:00,
2013-07-20 12:15:00,82.3,75.1,29.92,SSW,200,0.0,0.0,79,0.00,,,0.00,Wunderground v.1.15,2013-07-20 16:15:00,
2013-07-20 12:20:00,82.2,73.5,29.92,SSW,200,0.0,0.0,75,0.00,,,0.00,Wunderground v.1.15,2013-07-20 16:20:00,
2013-07-20 12:25:00,82.2,75.0,29.92,SSW,200,0.0,0.0,79,0.00,,,0.00,Wunderground v.1.15,2013-07-20 16:25:00,
2013-07-20 12:30:00,82.3,75.5,29.92,SSW,200,0.0,0.0,80,0.00,,,0.00,Wunderground v.1.15,2013-07-20 16:30:00,
2013-07-20 12:35:00,82.5,73.8,29.92,SSW,200,0.0,1.0,75,0.00,,,0.00,Wunderground v.1.15,2013-07-20 16:35:00,
2013-07-20 12:40:00,82.9,74.2,29.92,SSW,200,0.0,0.0,75,0.00,,,0.00,Wunderground v.1.15,2013-07-20 16:40:00,
2013-07-20 12:45:00,83.3,73.7,29.92,SSW,200,0.0,0.0,73,0.00,,,0.00,Wunderground v.1.15,2013-07-20 16:45:00,
2013-07-20 12:50:00,83.8,73.8,29.92,SSW,200,0.0,0.0,72,0.00,,,0.00,Wunderground v.1.15,2013-07-20 16:50:00,
2013-07-20 12:55:00,83.9,73.1,29.91,South,190,0.0,0.0,70,0.00,,,0.00,Wunderground v.1.15,2013-07-20 16:55:00,
2013-07-20 13:00:00,84.3,74.3,29.91,South,190,0.0,0.0,72,0.00,,,0.00,Wunderground v.1.15,2013-07-20 17:00:00,
2013-07-20 13:05:00,84.7,73.8,29.91,South,190,0.0,0.0,70,0.00,,,0.00,Wunderground v.1.15,2013-07-20 17:05:00,
2013-07-20 13:10:00,85.0,75.0,29.90,South,190,0.0,0.0,72,0.00,,,0.00,Wunderground v.1.15,2013-07-20 17:10:00,
2013-07-20 13:15:00,85.7,73.9,29.90,South,190,0.0,0.0,68,0.00,,,0.00,Wunderground v.1.15,2013-07-20 17:15:00,
2013-07-20 13:20:00,85.9,74.1,29.89,SW,214,0.0,0.0,68,0.00,,,0.00,Wunderground v.1.15,2013-07-20 17:20:00,
2013-07-20 13:25:00,85.8,73.6,29.89,SW,215,0.0,0.0,67,0.00,,,0.00,Wunderground v.1.15,2013-07-20 17:25:00,
2013-07-20 13:30:00,85.6,75.5,29.90,SW,215,0.0,0.0,72,0.00,,,0.00,Wunderground v.1.15,2013-07-20 17:30:00,
2013-07-20 13:35:00,84.4,72.2,29.89,WSW,252,0.0,0.0,67,0.00,,,0.00,Wunderground v.1.15,2013-07-20 17:35:00,
2013-07-20 13:40:00,82.2,70.6,29.90,WSW,248,1.0,1.0,68,0.00,,,0.00,Wunderground v.1.15,2013-07-20 17:40:00,
2013-07-20 13:45:00,80.7,71.2,29.90,WSW,248,0.0,1.0,73,0.00,,,0.00,Wunderground v.1.15,2013-07-20 17:45:00,
2013-07-20 13:50:00,79.2,69.0,29.90,West,266,0.0,0.0,71,0.00,,,0.00,Wunderground v.1.15,2013-07-20 17:50:00,
2013-07-20 13:55:00,77.9,68.9,29.91,West,267,0.0,0.0,74,0.00,,,0.00,Wunderground v.1.15,2013-07-20 17:55:00,
2013-07-20 14:00:00,76.9,69.5,29.92,West,267,0.0,0.0,78,0.00,,,0.00,Wunderground v.1.15,2013-07-20 18:00:00,
2013-07-20 14:05:00,75.9,70.0,29.92,West,267,0.0,0.0,82,0.00,,,0.00,Wunderground v.1.15,2013-07-20 18:05:00,
2013-07-20 14:10:00,74.9,69.7,29.92,SW,233,0.0,3.0,84,0.00,,,0.00,Wunderground v.1.15,2013-07-20 18:10:00,
2013-07-20 14:15:00,73.5,69.1,29.91,SSW,203,1.0,3.0,86,0.00,,,0.00,Wunderground v.1.15,2013-07-20 18:15:00,
2013-07-20 14:20:00,72.4,68.6,29.91,SSW,203,1.0,1.0,88,0.00,,,0.00,Wunderground v.1.15,2013-07-20 18:20:00,
2013-07-20 14:25:00,71.9,68.8,29.91,SSW,203,0.0,1.0,90,0.00,,,0.00,Wunderground v.1.15,2013-07-20 18:25:00,
2013-07-20 14:30:00,71.4,68.6,29.90,South,179,1.0,1.0,91,0.00,,,0.00,Wunderground v.1.15,2013-07-20 18:30:00,
2013-07-20 14:40:00,71.3,68.9,29.90,South,178,1.0,1.0,92,0.00,,,0.00,Wunderground v.1.15,2013-07-20 18:40:00,
2013-07-20 14:45:00,71.2,68.8,29.90,South,172,1.0,2.0,92,0.00,,,0.00,Wunderground v.1.15,2013-07-20 18:45:00,
2013-07-20 14:50:00,71.1,69.0,29.89,South,172,1.0,1.0,93,0.00,,,0.00,Wunderground v.1.15,2013-07-20 18:50:00,
2013-07-20 14:55:00,71.0,68.6,29.89,South,172,0.0,1.0,92,0.00,,,0.00,Wunderground v.1.15,2013-07-20 18:55:00,
2013-07-20 15:05:00,71.3,69.2,29.89,South,172,0.0,0.0,93,0.00,,,0.00,Wunderground v.1.15,2013-07-20 19:05:00,
2013-07-20 15:10:00,71.8,69.3,29.88,South,172,0.0,0.0,92,0.00,,,0.00,Wunderground v.1.15,2013-07-20 19:10:00,
2013-07-20 15:15:00,72.3,70.2,29.88,South,170,0.0,0.0,93,0.00,,,0.00,Wunderground v.1.15,2013-07-20 19:15:00,
2013-07-20 15:20:00,72.7,70.2,29.88,South,170,0.0,0.0,92,0.00,,,0.00,Wunderground v.1.15,2013-07-20 19:20:00,
2013-07-20 15:25:00,72.7,68.6,29.88,South,170,1.0,3.0,87,0.00,,,0.00,Wunderground v.1.15,2013-07-20 19:25:00,
2013-07-20 15:30:00,73.3,70.2,29.88,SE,146,1.0,1.0,90,0.00,,,0.00,Wunderground v.1.15,2013-07-20 19:30:00,
2013-07-20 15:35:00,73.7,70.9,29.87,SE,141,1.0,1.0,91,0.00,,,0.00,Wunderground v.1.15,2013-07-20 19:35:00,
2013-07-20 15:40:00,74.0,68.5,29.88,SE,142,1.0,1.0,83,0.00,,,0.00,Wunderground v.1.15,2013-07-20 19:40:00,
2013-07-20 15:45:00,74.6,70.8,29.88,SE,141,0.0,1.0,88,0.00,,,0.00,Wunderground v.1.15,2013-07-20 19:45:00,
2013-07-20 15:50:00,74.9,70.1,29.89,SE,142,0.0,0.0,85,0.00,,,0.00,Wunderground v.1.15,2013-07-20 19:50:00,
2013-07-20 15:55:00,75.2,70.7,29.88,SE,142,0.0,0.0,86,0.00,,,0.00,Wunderground v.1.15,2013-07-20 19:55:00,
2013-07-20 16:00:00,75.4,70.9,29.88,SE,141,0.0,0.0,86,0.00,,,0.00,Wunderground v.1.15,2013-07-20 20:00:00,
2013-07-20 16:15:00,75.9,72.1,29.87,SE,141,0.0,4.0,88,0.00,,,0.00,Wunderground v.1.15,2013-07-20 20:15:00,
2013-07-20 16:20:00,75.9,70.7,29.87,ESE,119,1.0,1.0,84,0.00,,,0.00,Wunderground v.1.15,2013-07-20 20:20:00,
2013-07-20 16:25:00,75.8,71.0,29.86,ESE,119,2.0,3.0,85,0.00,,,0.00,Wunderground v.1.15,2013-07-20 20:25:00,
2013-07-20 16:30:00,75.7,71.2,29.85,ESE,120,2.0,2.0,86,0.00,,,0.00,Wunderground v.1.15,2013-07-20 20:30:00,
2013-07-20 16:35:00,75.8,71.7,29.86,ESE,119,1.0,2.0,87,0.00,,,0.00,Wunderground v.1.15,2013-07-20 20:35:00,
2013-07-20 16:40:00,76.2,71.4,29.85,ESE,119,0.0,1.0,85,0.00,,,0.00,Wunderground v.1.15,2013-07-20 20:40:00,
2013-07-20 16:45:00,76.4,71.9,29.85,ESE,120,0.0,1.0,86,0.00,,,0.00,Wunderground v.1.15,2013-07-20 20:45:00,
2013-07-20 16:50:00,76.5,71.7,29.86,ESE,120,0.0,0.0,85,0.00,,,0.00,Wunderground v.1.15,2013-07-20 20:50:00,
2013-07-20 16:55:00,76.5,71.3,29.86,ESE,115,0.0,2.0,84,0.00,,,0.00,Wunderground v.1.15,2013-07-20 20:55:00,
2013-07-20 17:00:00,76.3,70.8,29.87,ESE,115,0.0,0.0,83,0.00,,,0.00,Wunderground v.1.15,2013-07-20 21:00:00,
2013-07-20 17:05:00,76.2,70.3,29.87,ESE,115,0.0,0.0,82,0.00,,,0.00,Wunderground v.1.15,2013-07-20 21:05:00,
2013-07-20 17:10:00,76.1,70.6,29.87,ESE,115,0.0,0.0,83,0.00,,,0.00,Wunderground v.1.15,2013-07-20 21:10:00,
2013-07-20 17:15:00,76.0,70.1,29.87,ESE,115,0.0,0.0,82,0.00,,,0.00,Wunderground v.1.15,2013-07-20 21:15:00,
2013-07-20 17:20:00,75.8,70.3,29.88,ESE,115,0.0,1.0,83,0.00,,,0.00,Wunderground v.1.15,2013-07-20 21:20:00,
2013-07-20 17:25:00,75.6,69.7,29.88,ESE,115,0.0,1.0,82,0.00,,,0.00,Wunderground v.1.15,2013-07-20 21:25:00,
2013-07-20 17:30:00,75.5,70.3,29.88,ESE,115,0.0,0.0,84,0.00,,,0.00,Wunderground v.1.15,2013-07-20 21:30:00,
2013-07-20 17:35:00,75.3,70.1,29.88,ESE,115,0.0,0.0,84,0.00,,,0.00,Wunderground v.1.15,2013-07-20 21:35:00,
2013-07-20 17:40:00,75.4,70.6,29.87,ESE,115,0.0,0.0,85,0.00,,,0.00,Wunderground v.1.15,2013-07-20 21:40:00,
2013-07-20 17:50:00,75.7,70.5,29.87,ESE,115,0.0,0.0,84,0.00,,,0.00,Wunderground v.1.15,2013-07-20 21:50:00,
2013-07-20 17:55:00,75.7,70.5,29.87,ESE,115,0.0,0.0,84,0.00,,,0.00,Wunderground v.1.15,2013-07-20 21:55:00,
2013-07-20 18:00:00,75.8,71.3,29.87,ESE,115,0.0,0.0,86,0.00,,,0.00,Wunderground v.1.15,2013-07-20 22:00:00,
2013-07-20 18:05:00,75.7,71.6,29.87,ESE,115,0.0,0.0,87,0.00,,,0.00,Wunderground v.1.15,2013-07-20 22:05:00,
2013-07-20 18:10:00,75.5,71.4,29.86,ESE,115,1.0,1.0,87,0.00,,,0.00,Wunderground v.1.15,2013-07-20 22:10:00,
2013-07-20 18:15:00,75.4,71.3,29.87,ESE,115,0.0,1.0,87,0.00,,,0.00,Wunderground v.1.15,2013-07-20 22:15:00,
2013-07-20 18:20:00,75.2,70.7,29.87,ESE,115,0.0,0.0,86,0.00,,,0.00,Wunderground v.1.15,2013-07-20 22:20:00,
2013-07-20 18:25:00,75.0,70.9,29.87,ESE,115,0.0,0.0,87,0.00,,,0.00,Wunderground v.1.15,2013-07-20 22:25:00,
2013-07-20 18:30:00,74.9,70.8,29.86,ESE,115,0.0,1.0,87,0.00,,,0.00,Wunderground v.1.15,2013-07-20 22:30:00,
2013-07-20 18:35:00,74.7,70.9,29.86,ESE,115,0.0,1.0,88,0.00,,,0.00,Wunderground v.1.15,2013-07-20 22:35:00,
2013-07-20 18:40:00,74.4,70.6,29.86,ESE,115,1.0,1.0,88,0.00,,,0.00,Wunderground v.1.15,2013-07-20 22:40:00,
2013-07-20 18:45:00,74.2,70.4,29.85,ESE,115,0.0,1.0,88,0.00,,,0.00,Wunderground v.1.15,2013-07-20 22:45:00,
2013-07-20 18:50:00,74.2,70.7,29.86,ESE,115,0.0,0.0,89,0.00,,,0.00,Wunderground v.1.15,2013-07-20 22:50:00,
2013-07-20 18:55:00,74.0,70.6,29.86,ESE,115,0.0,0.0,89,0.00,,,0.00,Wunderground v.1.15,2013-07-20 22:55:00,
2013-07-20 19:00:00,73.9,70.5,29.86,ESE,115,0.0,0.0,89,0.00,,,0.00,Wunderground v.1.15,2013-07-20 23:00:00,
2013-07-20 19:10:00,73.7,70.3,29.87,ESE,115,0.0,0.0,89,0.00,,,0.00,Wunderground v.1.15,2013-07-20 23:10:00,
2013-07-20 19:15:00,73.6,70.5,29.87,ESE,115,0.0,0.0,90,0.00,,,0.00,Wunderground v.1.15,2013-07-20 23:15:00,
2013-07-20 19:20:00,73.6,70.5,29.87,ESE,115,0.0,0.0,90,0.00,,,0.00,Wunderground v.1.15,2013-07-20 23:20:00,
2013-07-20 19:30:00,73.6,70.8,29.87,ESE,115,0.0,0.0,91,0.00,,,0.00,Wunderground v.1.15,2013-07-20 23:30:00,
2013-07-20 19:35:00,73.6,70.8,29.87,ESE,115,0.0,0.0,91,0.00,,,0.00,Wunderground v.1.15,2013-07-20 23:35:00,
2013-07-20 19:45:00,73.6,70.8,29.87,ESE,115,0.0,0.0,91,0.00,,,0.00,Wunderground v.1.15,2013-07-20 23:45:00,
2013-07-20 19:50:00,73.7,70.9,29.86,ESE,115,0.0,0.0,91,0.00,,,0.00,Wunderground v.1.15,2013-07-20 23:50:00,
2013-07-20 19:55:00,73.7,70.9,29.86,ESE,115,0.0,0.0,91,0.00,,,0.00,Wunderground v.1.15,2013-07-20 23:55:00,
2013-07-20 20:00:00,73.6,70.8,29.86,ESE,115,0.0,0.0,91,0.00,,,0.00,Wunderground v.1.15,2013-07-21 00:00:00,
2013-07-20 20:05:00,73.6,70.8,29.86,ESE,115,0.0,0.0,91,0.00,,,0.00,Wunderground v.1.15,2013-07-21 00:05:00,
2013-07-20 20:10:00,73.5,70.7,29.86,ESE,115,0.0,0.0,91,0.00,,,0.00,Wunderground v.1.15,2013-07-21 00:10:00,
2013-07-20 20:15:00,73.4,70.6,29.86,ESE,115,0.0,0.0,91,0.00,,,0.00,Wunderground v.1.15,2013-07-21 00:15:00,
2013-07-20 20:20:00,73.2,70.1,29.86,ESE,115,0.0,0.0,90,0.00,,,0.00,Wunderground v.1.15,2013-07-21 00:20:00,
2013-07-20 20:25:00,73.0,70.2,29.86,ESE,115,0.0,0.0,91,0.00,,,0.00,Wunderground v.1.15,2013-07-21 00:25:00,
2013-07-20 20:30:00,72.9,70.1,29.86,ESE,115,0.0,0.0,91,0.00,,,0.00,Wunderground v.1.15,2013-07-21 00:30:00,
2013-07-20 20:35:00,72.7,69.9,29.86,ESE,115,0.0,0.0,91,0.00,,,0.00,Wunderground v.1.15,2013-07-21 00:35:00,
2013-07-20 20:40:00,72.6,69.8,29.87,ESE,115,0.0,0.0,91,0.00,,,0.00,Wunderground v.1.15,2013-07-21 00:40:00,
2013-07-20 20:45:00,72.5,70.0,29.87,ESE,115,0.0,0.0,92,0.00,,,0.00,Wunderground v.1.15,2013-07-21 00:45:00,
2013-07-20 20:50:00,72.2,69.7,29.88,ESE,115,0.0,0.0,92,0.00,,,0.00,Wunderground v.1.15,2013-07-21 00:50:00,
2013-07-20 21:00:00,71.7,69.3,29.89,ESE,115,0.0,0.0,92,0.00,,,0.00,Wunderground v.1.15,2013-07-21 01:00:00,
2013-07-20 21:05:00,71.5,69.1,29.89,ESE,115,0.0,0.0,92,0.00,,,0.00,Wunderground v.1.15,2013-07-21 01:05:00,
2013-07-20 21:10:00,71.3,69.2,29.89,ESE,115,0.0,0.0,93,0.00,,,0.00,Wunderground v.1.15,2013-07-21 01:10:00,
2013-07-20 21:15:00,71.1,69.3,29.89,ESE,115,0.0,0.0,94,0.00,,,0.00,Wunderground v.1.15,2013-07-21 01:15:00,
2013-07-20 21:20:00,70.9,69.1,29.90,ESE,115,0.0,0.0,94,0.00,,,0.00,Wunderground v.1.15,2013-07-21 01:20:00,
2013-07-20 21:25:00,70.8,69.3,29.90,ESE,115,0.0,0.0,95,0.00,,,0.00,Wunderground v.1.15,2013-07-21 01:25:00,
2013-07-20 21:30:00,70.8,69.3,29.90,ESE,115,0.0,0.0,95,0.00,,,0.00,Wunderground v.1.15,2013-07-21 01:30:00,
2013-07-20 21:35:00,70.7,69.2,29.90,ESE,115,0.0,0.0,95,0.00,,,0.00,Wunderground v.1.15,2013-07-21 01:35:00,
2013-07-20 21:40:00,70.7,69.2,29.91,ESE,115,0.0,0.0,95,0.00,,,0.00,Wunderground v.1.15,2013-07-21 01:40:00,
2013-07-20 21:45:00,70.7,69.2,29.91,ESE,115,0.0,0.0,95,0.00,,,0.00,Wunderground v.1.15,2013-07-21 01:45:00,
2013-07-20 21:50:00,70.6,69.1,29.91,ESE,115,0.0,0.0,95,0.00,,,0.00,Wunderground v.1.15,2013-07-21 01:50:00,
2013-07-20 21:55:00,70.5,69.0,29.92,ESE,115,0.0,0.0,95,0.00,,,0.00,Wunderground v.1.15,2013-07-21 01:55:00,
2013-07-20 22:00:00,70.4,68.9,29.92,ESE,115,0.0,0.0,95,0.00,,,0.00,Wunderground v.1.15,2013-07-21 02:00:00,
2013-07-20 22:05:00,70.3,68.8,29.92,ESE,115,0.0,0.0,95,0.00,,,0.00,Wunderground v.1.15,2013-07-21 02:05:00,
2013-07-20 22:10:00,70.3,68.8,29.92,ESE,115,0.0,0.0,95,0.00,,,0.00,Wunderground v.1.15,2013-07-21 02:10:00,
2013-07-20 22:15:00,70.2,68.7,29.92,ESE,115,0.0,0.0,95,0.00,,,0.00,Wunderground v.1.15,2013-07-21 02:15:00,
2013-07-20 22:25:00,70.1,68.6,29.93,ESE,115,0.0,0.0,95,0.00,,,0.00,Wunderground v.1.15,2013-07-21 02:25:00,
2013-07-20 22:30:00,70.1,68.3,29.93,ESE,115,0.0,0.0,94,0.00,,,0.00,Wunderground v.1.15,2013-07-21 02:30:00,
2013-07-20 22:35:00,70.0,68.2,29.93,ESE,115,0.0,0.0,94,0.00,,,0.00,Wunderground v.1.15,2013-07-21 02:35:00,
2013-07-20 22:40:00,70.0,68.5,29.93,ESE,115,0.0,0.0,95,0.00,,,0.00,Wunderground v.1.15,2013-07-21 02:40:00,
2013-07-20 22:45:00,70.1,68.6,29.93,ESE,115,0.0,0.0,95,0.00,,,0.00,Wunderground v.1.15,2013-07-21 02:45:00,
2013-07-20 22:50:00,70.1,68.6,29.93,ESE,115,0.0,0.0,95,0.00,,,0.00,Wunderground v.1.15,2013-07-21 02:50:00,
2013-07-20 22:55:00,70.1,68.6,29.93,ESE,115,0.0,0.0,95,0.00,,,0.00,Wunderground v.1.15,2013-07-21 02:55:00,
2013-07-20 23:05:00,70.1,68.6,29.93,ESE,115,0.0,0.0,95,0.00,,,0.00,Wunderground v.1.15,2013-07-21 03:05:00,
2013-07-20 23:15:00,70.1,68.6,29.93,ESE,115,0.0,0.0,95,0.00,,,0.00,Wunderground v.1.15,2013-07-21 03:15:00,
2013-07-20 23:20:00,70.1,68.6,29.93,ESE,115,0.0,0.0,95,0.00,,,0.00,Wunderground v.1.15,2013-07-21 03:20:00,
2013-07-20 23:25:00,70.1,68.6,29.93,ESE,115,0.0,0.0,95,0.00,,,0.00,Wunderground v.1.15,2013-07-21 03:25:00,
2013-07-20 23:30:00,70.1,68.6,29.93,ESE,115,0.0,0.0,95,0.00,,,0.00,Wunderground v.1.15,2013-07-21 03:30:00,
2013-07-20 23:35:00,70.1,68.9,29.93,ESE,115,0.0,0.0,96,0.00,,,0.00,Wunderground v.1.15,2013-07-21 03:35:00,
2013-07-20 23:40:00,70.0,68.5,29.93,ESE,115,0.0,0.0,95,0.00,,,0.00,Wunderground v.1.15,2013-07-21 03:40:00,
2013-07-20 23:45:00,69.9,68.7,29.93,ESE,115,0.0,0.0,96,0.00,,,0.00,Wunderground v.1.15,2013-07-21 03:45:00,
2013-07-20 23:50:00,69.8,68.6,29.93,ESE,115,0.0,0.0,96,0.00,,,0.00,Wunderground v.1.15,2013-07-21 03:50:00,
2013-07-20 23:55:00,69.7,68.5,29.93,ESE,115,0.0,0.0,96,0.00,,,0.00,Wunderground v.1.15,2013-07-21 03:55:00,